| time (UTC) | temp F | wind direction | speed MPH | gust MPH | rain 1hr in | rain 24hr in | rain mn in | humidity % | barometer mb |
| 20260502223031 | 65 | 36 | 5.0 | 12.0 | 0.00 | 0.00 | 0.00 | 37 | 1017.3 |
| 20260502221530 | 63 | 330 | 5.0 | 12.0 | 0.00 | 0.00 | 0.00 | 39 | 1017.5 |
| 20260502220033 | 63 | 264 | 1.0 | 12.0 | 0.00 | 0.00 | 0.00 | 39 | 1017.8 |
| 20260502214528 | 63 | 5 | 7.0 | 13.0 | 0.00 | 0.00 | 0.00 | 40 | 1018.1 |
| 20260502213039 | 64 | 76 | 5.0 | 14.0 | 0.00 | 0.00 | 0.00 | 38 | 1018.1 |
| 20260502211536 | 63 | 34 | 3.0 | 11.0 | 0.00 | 0.00 | 0.00 | 40 | 1018.2 |
| 20260502210032 | 62 | 288 | 5.0 | 15.0 | 0.00 | 0.00 | 0.00 | 41 | 1018.6 |
| 20260502204530 | 63 | 36 | 8.0 | 17.0 | 0.00 | 0.00 | 0.00 | 40 | 1018.7 |
| 20260502203030 | 62 | 63 | 5.0 | 15.0 | 0.00 | 0.00 | 0.00 | 41 | 1018.7 |
| 20260502201533 | 61 | 360 | 6.0 | 15.0 | 0.00 | 0.00 | 0.00 | 42 | 1018.8 |
| 20260502200034 | 60 | 50 | 7.0 | 15.0 | 0.00 | 0.00 | 0.00 | 44 | 1019.1 |
| 20260502194536 | 60 | 42 | 9.0 | 17.0 | 0.00 | 0.00 | 0.00 | 45 | 1019.4 |
| 20260502193039 | 60 | 31 | 9.0 | 19.0 | 0.00 | 0.00 | 0.00 | 45 | 1019.4 |
| 20260502191532 | 60 | 340 | 10.0 | 17.0 | 0.00 | 0.00 | 0.00 | 45 | 1019.5 |
| 20260502190042 | 59 | 5 | 12.0 | 20.0 | 0.00 | 0.00 | 0.00 | 45 | 1019.7 |
| 20260502184530 | 60 | 37 | 11.0 | 19.0 | 0.00 | 0.00 | 0.00 | 44 | 1019.6 |
| 20260502183030 | 59 | 30 | 8.0 | 16.0 | 0.00 | 0.00 | 0.00 | 46 | 1019.8 |
| 20260502181537 | 59 | 5 | 10.0 | 18.0 | 0.00 | 0.00 | 0.00 | 46 | 1019.8 |
| 20260502163038 | 59 | 34 | 15.0 | 22.0 | 0.00 | 0.00 | 0.00 | 45 | 1019.9 |
| 20260502161531 | 59 | 38 | 16.0 | 25.0 | 0.00 | 0.00 | 0.00 | 46 | 1020.0 |
| 20260502151555 | 58 | 45 | 14.0 | 21.0 | 0.00 | 0.00 | 0.00 | 46 | 1019.5 |
| 20260502123035 | 45 | 33 | 12.0 | 15.0 | 0.00 | 0.00 | 0.00 | 62 | 1018.6 |
| 20260502121533 | 44 | 30 | 12.0 | 15.0 | 0.00 | 0.00 | 0.00 | 63 | 1018.5 |
| 20260502114531 | 44 | 15 | 12.0 | 17.0 | 0.00 | 0.00 | 0.00 | 62 | 1018.2 |
| 20260502113040 | 45 | 9 | 12.0 | 19.0 | 0.00 | 0.00 | 0.00 | 58 | 1018.0 |
| 20260502111528 | 47 | 17 | 16.0 | 21.0 | 0.00 | 0.00 | 0.00 | 58 | 1017.6 |
| 20260502110035 | 46 | 25 | 12.0 | 17.0 | 0.00 | 0.00 | 0.00 | 56 | 1017.4 |
| 20260502104531 | 48 | 16 | 13.0 | 18.0 | 0.00 | 0.00 | 0.00 | 53 | 1017.3 |
| 20260502103030 | 49 | 43 | 12.0 | 18.0 | 0.00 | 0.00 | 0.00 | 51 | 1016.9 |
| 20260502101530 | 49 | 51 | 14.0 | 21.0 | 0.00 | 0.00 | 0.00 | 51 | 1016.6 |
| 20260502091530 | 49 | 17 | 10.0 | 13.0 | 0.00 | 0.00 | 0.00 | 48 | 1016.2 |
| 20260502071531 | 53 | 348 | 7.0 | 10.0 | 0.00 | 0.00 | 0.00 | 37 | 1015.4 |
| 20260502070044 | 50 | 360 | 5.0 | 9.0 | 0.00 | 0.00 | 0.00 | 40 | 1015.5 |
| 20260502064530 | 51 | 342 | 6.0 | 10.0 | 0.00 | 0.00 | 0.00 | 39 | 1015.5 |
| 20260502063040 | 52 | 5 | 8.0 | 11.0 | 0.00 | 0.00 | 0.00 | 37 | 1015.4 |
| 20260502061532 | 52 | 5 | 9.0 | 12.0 | 0.00 | 0.00 | 0.00 | 37 | 1015.3 |
| 20260502060031 | 52 | 26 | 8.0 | 10.0 | 0.00 | 0.00 | 0.00 | 37 | 1015.2 |
| 20260502054535 | 56 | 355 | 10.0 | 12.0 | 0.00 | 0.00 | 0.00 | 34 | 1015.3 |
| 20260502053031 | 56 | 346 | 9.0 | 12.0 | 0.00 | 0.00 | 0.00 | 34 | 1015.2 |
| 20260502051530 | 55 | 323 | 5.0 | 8.0 | 0.00 | 0.00 | 0.00 | 35 | 1015.2 |
| 20260502050037 | 51 | 346 | 4.0 | 8.0 | 0.00 | 0.00 | 0.00 | 36 | 1015.2 |
| 20260502044530 | 54 | 312 | 7.0 | 10.0 | 0.00 | 0.00 | 0.00 | 34 | 1015.1 |
| 20260502043031 | 53 | 302 | 4.0 | 8.0 | 0.00 | 0.00 | 0.00 | 34 | 1015.1 |
| 20260502041531 | 55 | 314 | 5.0 | 8.0 | 0.00 | 0.00 | 0.00 | 32 | 1015.1 |
| 20260502040030 | 58 | 315 | 4.0 | 10.0 | 0.00 | 0.00 | 0.00 | 28 | 1015.0 |
| 20260502034528 | 59 | 337 | 6.0 | 11.0 | 0.00 | 0.00 | 0.00 | 27 | 1015.0 |
| 20260502033031 | 60 | 309 | 7.0 | 11.0 | 0.00 | 0.00 | 0.00 | 26 | 1015.0 |
| 20260502031532 | 60 | 339 | 8.0 | 11.0 | 0.00 | 0.00 | 0.00 | 26 | 1014.8 |
| 20260502030031 | 64 | 298 | 5.0 | 9.0 | 0.00 | 0.00 | 0.00 | 21 | 1014.6 |
| 20260502024532 | 66 | 300 | 4.0 | 10.0 | 0.00 | 0.00 | 0.00 | 21 | 1014.3 |
| 20260502023030 | 69 | 319 | 5.0 | 12.0 | 0.00 | 0.00 | 0.00 | 20 | 1014.2 |
| 20260502021528 | 69 | 236 | 6.0 | 10.0 | 0.00 | 0.00 | 0.00 | 21 | 1014.2 |
| 20260502020032 | 69 | 337 | 0.0 | 3.0 | 0.00 | 0.00 | 0.00 | 23 | 1014.2 |
| 20260502014535 | 71 | 0 | 0.0 | 0.0 | 0.00 | 0.00 | 0.00 | 22 | 1014.2 |
| 20260502013029 | 72 | 0 | 1.0 | 4.0 | 0.00 | 0.00 | 0.00 | 21 | 1014.2 |
| 20260502011531 | 72 | 300 | 1.0 | 4.0 | 0.00 | 0.00 | 0.00 | 21 | 1014.3 |
| 20260502010033 | 72 | 294 | 2.0 | 9.0 | 0.00 | 0.00 | 0.00 | 20 | 1014.3 |
| 20260502004532 | 73 | 337 | 4.0 | 13.0 | 0.00 | 0.00 | 0.00 | 20 | 1014.5 |
| 20260502003030 | 73 | 17 | 2.0 | 6.0 | 0.00 | 0.00 | 0.00 | 20 | 1014.5 |
| 20260502001533 | 72 | 9 | 5.0 | 15.0 | 0.00 | 0.00 | 0.00 | 21 | 1014.7 |
| 20260502000055 | 72 | 321 | 4.0 | 13.0 | 0.00 | 0.00 | 0.00 | 20 | 1014.7 |
| 20260501234534 | 72 | 338 | 9.0 | 16.0 | 0.00 | 0.00 | 0.00 | 21 | 1014.8 |
| 20260501233028 | 72 | 318 | 12.0 | 21.0 | 0.00 | 0.00 | 0.00 | 21 | 1014.9 |
| 20260501231531 | 73 | 326 | 8.0 | 13.0 | 0.00 | 0.00 | 0.00 | 21 | 1014.9 |
| 20260501230033 | 72 | 277 | 12.0 | 21.0 | 0.00 | 0.00 | 0.00 | 21 | 1015.1 |
| 20260501224554 | 72 | 286 | 12.0 | 19.0 | 0.00 | 0.00 | 0.00 | 20 | 1015.3 |